sat.trackr.live / text

‹ back to catalog

STARLINK-11622 [DTC]

NORAD 63187 · 2025-048E

PAYLOAD ACTIVE UNKNOWN

§ Identity

Operator
Country
US
Launch date
2025-03-13
Launch site
AFETR
Launch vehicle
Mass (kg)
RCS (m²)

Purposes: comms

External: N2YO · Heavens-Above · Gunter

§ Orbital elements

Epoch: 2026-05-25T05:21:52.647264Z

Period
91.67 min
Inclination
42.9995°
Eccentricity
0.0001927
Mean motion
15.70906836 rev/d
Perigee alt
355.0 km
Apogee alt
357.6 km
Semi-major
6,734.4 km
B*
1.7177e-3
RAAN
218.9603°
Arg perigee
274.6643°
Mean anomaly
85.4004°
Rev number
7,055

§ Raw data

STARLINK-11622 [DTC]1 63187U 25048E   26145.22352601  .00226712  00000+0  17177-2 0  99972 63187  42.9995 218.9603 0001927 274.6643  85.4004 15.70906836 70558

JSON: /api/v1/satellites/63187 · /tle

For live sub-satellite position, see the globe view (requires WebGL).

§ Visibility from observer

Set your observer location to see the next 7 days of passes ≥ 10°. The values pass through the URL so the page stays shareable.

No JS? Fill the form by hand. The geolocation button needs JavaScript.